Hourly Weather Alhimovo

Today, 3 March, Wednesday

Time Temperature Precipitation Wind Pressure Humidity
00:00 -5°C° 0.1 mm 5 mps 739 mmHg 88%
01:00 -5°C° 0.1 mm 5 mps 739 mmHg 89%
02:00 -5°C° 0 mm 4 mps 740 mmHg 90%
03:00 -5°C° 0 mm 4 mps 740 mmHg 89%
04:00 -5°C° 0 mm 4 mps 740 mmHg 89%
05:00 -7°C° 0 mm 4 mps 740 mmHg 89%
06:00 -5°C° 0 mm 4 mps 740 mmHg 90%
07:00 -5°C° 0 mm 4 mps 740 mmHg 91%
08:00 -6°C° 0 mm 5 mps 741 mmHg 92%
09:00 -5°C° 0 mm 5 mps 740 mmHg 90%
10:00 -4°C° 0 mm 5 mps 740 mmHg 89%
11:00 -4°C° 0 mm 6 mps 740 mmHg 87%
12:00 -4°C° 0 mm 6 mps 740 mmHg 87%
13:00 -3°C° 0 mm 6 mps 739 mmHg 86%
14:00 -3°C° 0 mm 6 mps 739 mmHg 85%
15:00 -3°C° 0 mm 6 mps 739 mmHg 85%
16:00 -4°C° 0 mm 6 mps 738 mmHg 85%
17:00 -4°C° 0 mm 6 mps 737 mmHg 86%
18:00 -4°C° 0 mm 5 mps 737 mmHg 86%
19:00 -4°C° 0 mm 5 mps 736 mmHg 87%
20:00 -3°C° 0 mm 4 mps 736 mmHg 88%
21:00 -2°C° 0 mm 5 mps 735 mmHg 89%
22:00 -1°C° 0 mm 5 mps 734 mmHg 90%
23:00 -2°C° 0 mm 6 mps 733 mmHg 91%

Tomorrow, 4 March, Thursday

Time Temperature Precipitation Wind Pressure Humidity
00:00 -2°C° 0 mm 6 mps 733 mmHg 89%
01:00 -2°C° 0 mm 6 mps 732 mmHg 88%
02:00 -3°C° 0 mm 6 mps 732 mmHg 86%
03:00 -3°C° 0 mm 6 mps 731 mmHg 88%
04:00 -3°C° 0 mm 6 mps 730 mmHg 90%
05:00 -4°C° 0 mm 5 mps 730 mmHg 92%
06:00 -4°C° 0.1 mm 5 mps 730 mmHg 93%
07:00 -4°C° 0.1 mm 5 mps 729 mmHg 94%
08:00 -4°C° 0.1 mm 5 mps 729 mmHg 95%
09:00 -2°C° 0.2 mm 4 mps 729 mmHg 96%
10:00 -2°C° 0.2 mm 4 mps 729 mmHg 97%
11:00 -1°C° 0.2 mm 3 mps 728 mmHg 98%
12:00 -1°C° 0.7 mm 3 mps 728 mmHg 98%
13:00 -2°C° 0.7 mm 3 mps 728 mmHg 97%
14:00 -2°C° 0.7 mm 3 mps 728 mmHg 97%
15:00 -4°C° 0.8 mm 3 mps 727 mmHg 96%
16:00 -4°C° 0.8 mm 3 mps 727 mmHg 95%
17:00 -4°C° 0.8 mm 2 mps 727 mmHg 93%
18:00 -4°C° 0.1 mm 2 mps 727 mmHg 92%
19:00 -3°C° 0.1 mm 1 mps 727 mmHg 91%
20:00 -4°C° 0.1 mm 0 mps 728 mmHg 90%
21:00 -4°C° 0 mm 1 mps 728 mmHg 90%
22:00 -4°C° 0 mm 1 mps 728 mmHg 90%
23:00 -6°C° 0 mm 2 mps 728 mmHg 89%

Day after tomorrow, 5 March, Friday

Time Temperature Precipitation Wind Pressure Humidity
00:00 -7°C° 0 mm 2 mps 729 mmHg 89%
01:00 -7°C° 0 mm 2 mps 729 mmHg 89%
02:00 -8°C° 0 mm 2 mps 729 mmHg 90%
03:00 -8°C° 0 mm 2 mps 730 mmHg 90%
04:00 -8°C° 0 mm 2 mps 730 mmHg 91%
05:00 -8°C° 0 mm 2 mps 730 mmHg 92%
06:00 -9°C° 0.1 mm 3 mps 731 mmHg 92%
07:00 -8°C° 0.1 mm 3 mps 731 mmHg 91%
08:00 -9°C° 0.1 mm 4 mps 732 mmHg 91%
09:00 -8°C° 0 mm 4 mps 732 mmHg 88%
10:00 -7°C° 0 mm 3 mps 732 mmHg 84%
11:00 -6°C° 0 mm 3 mps 733 mmHg 81%
12:00 -6°C° 0 mm 3 mps 733 mmHg 78%
13:00 -6°C° 0 mm 3 mps 734 mmHg 76%
14:00 -5°C° 0 mm 3 mps 734 mmHg 74%
15:00 -6°C° 0 mm 3 mps 734 mmHg 76%
16:00 -6°C° 0 mm 2 mps 734 mmHg 79%
17:00 -7°C° 0 mm 2 mps 734 mmHg 81%
18:00 -8°C° 0 mm 2 mps 735 mmHg 82%
19:00 -8°C° 0 mm 2 mps 735 mmHg 83%
20:00 -8°C° 0 mm 1 mps 736 mmHg 84%
21:00 -8°C° 0 mm 1 mps 736 mmHg 85%
22:00 -9°C° 0 mm 1 mps 736 mmHg 85%
23:00 -9°C° 0 mm 1 mps 736 mmHg 86%

6 March, Saturday

Time Temperature Precipitation Wind Pressure Humidity
00:00 -9°C° 0 mm 1 mps 736 mmHg 87%
01:00 -9°C° 0 mm 1 mps 737 mmHg 87%
02:00 -10°C° 0 mm 2 mps 737 mmHg 88%
03:00 -10°C° 0 mm 2 mps 737 mmHg 90%
04:00 -10°C° 0 mm 2 mps 737 mmHg 91%
05:00 -10°C° 0 mm 2 mps 738 mmHg 93%
06:00 -13°C° 0 mm 3 mps 738 mmHg 91%
07:00 -13°C° 0 mm 3 mps 738 mmHg 89%
08:00 -13°C° 0 mm 3 mps 739 mmHg 87%
09:00 -12°C° 0 mm 3 mps 739 mmHg 82%
10:00 -12°C° 0 mm 3 mps 739 mmHg 77%
11:00 -11°C° 0 mm 4 mps 739 mmHg 72%
12:00 -9°C° 0 mm 3 mps 739 mmHg 72%
13:00 -9°C° 0 mm 3 mps 739 mmHg 71%
14:00 -8°C° 0 mm 3 mps 739 mmHg 71%
15:00 -9°C° 0 mm 3 mps 739 mmHg 75%
16:00 -9°C° 0 mm 3 mps 739 mmHg 79%
17:00 -9°C° 0 mm 3 mps 739 mmHg 82%
18:00 -10°C° 0 mm 3 mps 739 mmHg 83%
19:00 -11°C° 0 mm 4 mps 738 mmHg 84%
20:00 -12°C° 0 mm 4 mps 738 mmHg 85%
21:00 -12°C° 0 mm 5 mps 737 mmHg 82%
22:00 -12°C° 0 mm 5 mps 736 mmHg 79%
23:00 -11°C° 0 mm 6 mps 735 mmHg 76%

7 March, Sunday

Time Temperature Precipitation Wind Pressure Humidity
00:00 -11°C° 0 mm 6 mps 734 mmHg 76%
01:00 -11°C° 0 mm 7 mps 733 mmHg 76%
02:00 -11°C° 0 mm 8 mps 732 mmHg 76%
03:00 -10°C° 0 mm 8 mps 731 mmHg 80%
04:00 -10°C° 0 mm 9 mps 730 mmHg 84%
05:00 -10°C° 0 mm 9 mps 728 mmHg 87%
06:00 -9°C° 0.3 mm 9 mps 728 mmHg 87%
07:00 -9°C° 0.3 mm 10 mps 727 mmHg 87%
08:00 -8°C° 0.3 mm 10 mps 726 mmHg 88%
09:00 -8°C° 0.3 mm 10 mps 725 mmHg 88%
10:00 -6°C° 0.3 mm 9 mps 725 mmHg 88%
11:00 -5°C° 0.3 mm 9 mps 724 mmHg 88%
12:00 -6°C° 1.8 mm 8 mps 724 mmHg 90%
13:00 -7°C° 1.8 mm 7 mps 723 mmHg 91%
14:00 -6°C° 1.8 mm 6 mps 722 mmHg 92%
15:00 -8°C° 0.5 mm 6 mps 723 mmHg 85%
16:00 -9°C° 0.5 mm 6 mps 723 mmHg 78%
17:00 -11°C° 0.5 mm 7 mps 724 mmHg 70%
18:00 -10°C° 0 mm 6 mps 724 mmHg 73%
19:00 -11°C° 0 mm 6 mps 724 mmHg 75%
20:00 -11°C° 0 mm 6 mps 725 mmHg 78%
21:00 -11°C° 0.1 mm 6 mps 725 mmHg 80%
22:00 -11°C° 0.1 mm 6 mps 725 mmHg 82%
23:00 -12°C° 0.1 mm 7 mps 725 mmHg 85%

8 March, Monday

Time Temperature Precipitation Wind Pressure Humidity
00:00 -13°C° 0.1 mm 7 mps 726 mmHg 83%
01:00 -14°C° 0.1 mm 7 mps 726 mmHg 82%
02:00 -15°C° 0.1 mm 7 mps 727 mmHg 80%
03:00 -16°C° 0 mm 6 mps 728 mmHg 83%
04:00 -17°C° 0 mm 5 mps 728 mmHg 85%
05:00 -17°C° 0 mm 4 mps 729 mmHg 88%
06:00 -16°C° 0 mm 4 mps 729 mmHg 88%
07:00 -16°C° 0 mm 4 mps 730 mmHg 89%
08:00 -15°C° 0 mm 4 mps 730 mmHg 90%
09:00 -14°C° 0 mm 4 mps 731 mmHg 87%
10:00 -12°C° 0 mm 4 mps 731 mmHg 85%
11:00 -11°C° 0 mm 4 mps 731 mmHg 83%
12:00 -12°C° 0.1 mm 5 mps 732 mmHg 82%
13:00 -12°C° 0.1 mm 5 mps 732 mmHg 82%
14:00 -12°C° 0.1 mm 5 mps 732 mmHg 81%
15:00 -12°C° 0 mm 4 mps 733 mmHg 83%
16:00 -14°C° 0 mm 4 mps 733 mmHg 84%
17:00 -14°C° 0 mm 4 mps 734 mmHg 86%
18:00 -15°C° 0 mm 4 mps 734 mmHg 87%
19:00 -16°C° 0 mm 4 mps 735 mmHg 88%
20:00 -17°C° 0 mm 4 mps 736 mmHg 90%
21:00 -18°C° 0 mm 4 mps 736 mmHg 90%
22:00 -19°C° 0 mm 4 mps 737 mmHg 91%
23:00 -19°C° 0 mm 4 mps 738 mmHg 91%
Show more